Location: Blythe
(33.2930°N, 82.2020°W)
Time: 01:46:33
(UTC-04:00)

Hubble Space Telescope - Visible Passes

Search period start: 01 August 2015 00:00
Search period end: 11 August 2015 00:00
Orbit: 541 x 545 km, 28.5° (Epoch: 31 July)

Date Brightness Start Highest point End Pass type
(mag) Time Alt. Az. Time Alt. Az. Time Alt. Az.
02 Aug 2.8 20:55:02 10° S 20:56:38 12° SSE 20:58:20 10° SE visible
02 Aug 3.1 22:33:48 10° SW 22:34:32 14° SW 22:34:32 14° SW visible
03 Aug 2.4 22:24:45 10° SW 22:26:38 22° SW 22:26:38 22° SW visible
04 Aug 1.8 22:15:46 10° WSW 22:18:35 32° SSW 22:18:35 32° SSW visible
05 Aug 1.4 22:06:48 10° WSW 22:10:23 39° S 22:10:23 39° S visible
06 Aug 1.2 21:57:51 10° WSW 22:01:47 42° S 22:02:04 41° SSE visible
07 Aug 1.2 21:48:56 10° WSW 21:52:53 43° S 21:53:40 38° SSE visible
08 Aug 1.3 21:40:02 10° WSW 21:43:58 42° S 21:45:12 32° SE visible
09 Aug 1.4 21:31:10 10° WSW 21:35:03 40° S 21:36:42 27° SE visible
10 Aug 1.6 21:22:17 10° WSW 21:26:08 37° S 21:28:11 22° SE visible
